Location: Cortada Guamacho
(10.5667°N, 67.0833°W)
Time: 03:56:27
(UTC+00:00)

Cosmos 2228 Rocket - Pass Details

Date: 08 July 2022
Orbit: 618 x 651 km, 82.5° (Epoch: 14 August)

Event Time Altitude Azimuth Distance (km) Brightness Sun altitude
Rises 07:32:59 0° 3° (N) 2,924 7.0 -35.0°
Reaches altitude 10° 07:35:15 10° 8° (N) 2,021 6.1 -34.6°
Enters shadow 07:36:25 18° 13° (NNE) 1,579 5.5 -34.3°
